Location: Pasadena, ca
(34.1243°N, 118.1037°W)
Time: 19:51:29
(UTC-07:00)

Tiangong 1 - Pass Details

Date: 10 October 2017
Orbit: 292 x 320 km, 42.8° (Epoch: 21 October)

Event Time Altitude Azimuth Distance (km) Brightness Sun altitude
Rises 19:22:36 0° 299° (WNW) 2,040 5.9 -12.9°
Reaches altitude 10° 19:25:20 10° 330° (NNW) 1,202 4.0 -13.5°
Maximum altitude 19:26:43 13° 1° (N) 1,045 3.3 -13.8°
Enters shadow 19:27:38 12° 23° (NNE) 1,115 3.2 -14.0°
